[[{"header":{"parameterUnit":"m.s-1","parameterCategory":1,"la1":30.2991,"la2":30.254,"lo1":-89.0895,"lo2":-89.0444,"dy":0.0017,"dx":0.0017,"nx":28,"ny":28,"refTime":"2024-07-16T21:00:00:Z","depth":0,"parameterNumber":2,"parameterNumberName":"U-component_of_WINDS"},"data":[0,0,0,0,0,0,0,0,0,0,0,0,0,0,0,0,0,0,0,0,0,0,0,0,0,0,0,0,0,0,0,0,0,0,0,0,0,0,0,0,0,0,0,0,0,0,0,0,0,0,0,0,0,0,0,0,0,0,2.0778,2.0778,0,2.0852,2.0853,2.0854,2.085,2.0848,2.0847,2.0846,2.092,2.0923,2.0926,0,0,0,0,0,0,0,0,0,0,0,0,0,2.0627,2.063,2.0777,2.0778,2.0779,2.0852,2.0853,2.0854,2.085,2.0848,2.0847,2.0846,2.0919,2.0922,2.0926,0,0,0,0,0,0,0,0,0,0,0,0,0,2.0696,2.0631,2.0777,2.0786,2.0788,2.0852,2.0853,2.0854,2.085,2.0848,2.0847,2.0845,2.0918,2.0922,2.0926,2.0986,0,0,2.094,2.0942,0,0,0,0,0,0,0,0,2.0692,2.0702,2.0784,2.0786,2.0787,2.084,2.0827,2.0898,2.085,2.0826,2.0846,2.0844,2.0894,2.0901,2.0918,2.0989,2.0992,2.094,2.0943,2.0945,2.0946,0,0,0,0,0,0,0,2.0687,2.0698,2.0807,2.0785,2.0787,2.0785,2.0793,2.084,2.0868,2.0828,2.0828,2.0837,2.0895,2.0914,2.092,2.0993,2.094,2.0944,2.0947,2.0948,2.1114,2.1115,0,0,0,0,0,0,2.0681,2.0694,2.0804,2.0809,2.0735,2.0789,2.0798,2.0825,2.0868,2.0873,2.0838,2.0837,2.0907,2.0914,2.0922,2.0992,2.0945,2.0949,2.0951,2.1112,2.1114,2.1116,0,0,0,0,0,0,2.0678,2.0691,2.0801,2.0752,2.0766,2.0793,2.0823,2.0827,2.0846,2.0876,2.088,2.0853,2.0906,2.0916,2.0969,2.0995,2.0951,2.0955,2.111,2.1112,2.1115,2.1134,0,0,0,0,0,0,2.0674,2.069,2.0714,2.0752,2.0768,2.0849,2.0825,2.083,2.0854,2.0852,2.089,2.0895,2.0905,2.0963,2.0974,2.1,2.0958,2.1108,2.1111,2.1114,2.1131,2.1137,2.1142,0,0,0,0,0,2.0668,2.0716,2.0715,2.0729,2.0799,2.085,2.0859,2.0871,2.0856,2.0879,2.0898,2.0894,2.0991,2.0968,2.0981,2.1009,2.1106,2.111,2.1114,2.1129,2.1136,2.1142,0,0,0,0,0,0,2.068,2.0722,2.0721,2.0783,2.0813,2.085,2.088,2.0879,2.0913,2.091,2.0923,2.0932,2.0985,2.1002,2.0977,2.1067,2.1046,2.1053,2.1053,2.106,2.1065,2.1059,2.0962,0,0,0,0,0,2.069,2.0729,2.0763,2.0815,2.083,2.0852,2.0875,2.0882,2.0913,2.0925,2.0948,2.0978,2.1014,2.1039,2.1074,2.1134,2.1141,2.1159,2.1165,2.1169,2.1174,2.1204,2.1212,2.1129,2.1129,2.1128,0,0,2.071,2.0738,2.0762,2.0818,2.0842,2.088,2.0863,2.0905,2.0933,2.0932,2.0983,2.1001,2.1034,2.109,2.1116,2.1107,2.1198,2.1174,2.1177,2.118,2.1209,2.1217,2.1224,2.1131,2.1131,2.113,0,0,2.0767,2.0793,2.0838,2.0862,2.0899,2.0913,2.0924,2.096,2.0972,2.1024,2.1022,2.1055,2.112,2.1143,2.1163,2.1227,2.1223,2.1238,2.1265,2.1294,2.1301,2.1307,2.1327,2.1335,2.1243,2.1243,2.1243,0,2.0787,2.0847,2.086,2.0902,2.0926,2.0926,2.097,2.0993,2.1039,2.1054,2.1043,2.1122,2.1145,2.1205,2.122,2.1238,2.1248,2.1233,2.1299,2.1305,2.1311,2.133,2.1338,2.1244,2.1244,2.1244,2.1244,0,2.0869,2.091,2.0942,2.0986,2.1013,2.1056,2.1074,2.11,2.1103,2.1118,2.117,2.1197,2.1237,2.1252,2.1257,2.1313,2.1305,2.1297,2.1276,2.132,2.1338,2.1346,2.1246,2.1246,2.1246,2.1245,0,0,2.0935,2.0986,2.0997,2.1016,2.1056,2.1087,2.1129,2.1169,2.1189,2.1221,2.1255,2.1308,2.13,2.1323,2.133,2.1356,2.1401,2.1343,2.1344,2.1351,2.1461,2.1466,2.1475,2.1399,2.1401,2.1402,2.1458,0,2.0994,2.107,2.1082,2.1147,2.1184,2.1184,2.122,2.1247,2.1262,2.1294,2.1309,2.1346,2.1334,2.1347,2.1373,2.139,2.1423,2.1386,2.1429,2.143,2.1419,2.1485,2.1491,2.1542,2.1465,2.1466,2.1467,0,2.1074,2.1107,2.1176,2.1209,2.1225,2.1257,2.1293,2.1325,2.1355,2.1363,2.1388,2.1391,2.1433,2.1411,2.1466,2.1441,2.1459,2.147,2.1472,2.1475,2.145,2.1488,2.1559,2.1566,2.1479,2.1478,2.1478,0,2.1112,2.1174,2.1223,2.124,2.128,2.1302,2.132,2.1349,2.1371,2.1402,2.1416,2.1452,2.1471,2.1498,2.151,2.1493,2.1564,2.1544,2.157,2.157,2.1584,2.1583,2.1657,2.1599,2.1599,2.1598,2.1598,0,2.1175,2.1217,2.124,2.127,2.1316,2.1329,2.1373,2.139,2.1415,2.1447,2.1449,2.1479,2.1494,2.1525,2.1534,2.1577,2.1587,2.1593,2.1595,2.1592,2.1591,2.1603,2.1599,2.16,2.16,2.16,2.1599,0,2.1225,2.1243,2.1296,2.133,2.1339,2.1371,2.1399,2.1427,2.1441,2.148,2.149,2.1512,2.1549,2.1563,2.1608,2.1614,2.1663,2.1663,2.1653,2.1653,2.1678,2.1675,2.1761,2.1772,2.1709,2.1709,2.171,0,2.1264,2.1296,2.1333,2.1354,2.1373,2.1408,2.1431,2.1444,2.1467,2.1503,2.1526,2.1562,2.1592,2.165,2.1669,2.1702,2.1702,2.173,2.1707,2.1702,2.17,2.1697,2.1699,2.1733,2.1734,2.1735,2.1735,0,2.133,2.1336,2.137,2.1406,2.1433,2.1462,2.1489,2.1507,2.1524,2.155,2.1587,2.161,2.1655,2.1691,2.1725,2.1741,2.174,2.1742,2.175,2.1746,2.1738,2.1741,2.1663,2.174,2.1739,2.1739,2.1739,2.1739,2.1374,2.1401,2.1431,2.1467,2.149,2.1515,2.1542,2.156,2.1592,2.163,2.1636,2.1675,2.1702,2.1748,2.1766,2.1796,2.1788,2.18,2.1802,2.1804,2.1805,2.1735,2.1802,2.1802,2.1802,2.1802,2.1802,0,2.1437,2.1457,2.149,2.1529,2.1557,2.1555,2.1585,2.1608,2.1643,2.1669,2.1698,2.1739,2.1773,2.1795,2.1828,2.1848,2.1848,2.1856,2.1854,2.1857,2.1811,2.18,2.1855,2.1855,2.1855,2.1855,2.1855,2.1855,2.1474,2.1519,2.153,2.1585,2.1604,2.1643,2.166,2.1683,2.1703,2.175,2.1778,2.1792,2.1816,2.1851,2.1881,2.1886,2.1898,2.1906,2.191,2.1866,2.1861,2.1855,2.1845,2.1909,2.1909,2.1954,2.1954,2.1954]},{"header":{"parameterUnit":"m.s-1","parameterCategory":1,"la1":30.2991,"la2":30.254,"lo1":-89.0895,"lo2":-89.0444,"dy":0.0017,"dx":0.0017,"nx":28,"ny":28,"refTime":"2024-07-16T21:00:00:Z","depth":0,"parameterNumber":3,"parameterNumberName":"V-component_of_WINDS"},"data":[0,0,0,0,0,0,0,0,0,0,0,0,0,0,0,0,0,0,0,0,0,0,0,0,0,0,0,0,0,0,0,0,0,0,0,0,0,0,0,0,0,0,0,0,0,0,0,0,0,0,0,0,0,0,0,0,0,0,5.1314,5.1314,0,5.1315,5.1315,5.1315,5.1224,5.1221,5.1219,5.1216,5.1217,5.1219,5.1221,0,0,0,0,0,0,0,0,0,0,0,0,0,5.1233,5.1235,5.1314,5.1314,5.1314,5.1315,5.1315,5.1315,5.1224,5.1221,5.1218,5.1215,5.1216,5.1218,5.1221,0,0,0,0,0,0,0,0,0,0,0,0,0,5.1254,5.1235,5.1314,5.1269,5.1265,5.1315,5.1315,5.1315,5.1225,5.1221,5.1217,5.1214,5.1215,5.1218,5.1221,5.1314,0,0,5.1232,5.1233,0,0,0,0,0,0,0,0,5.1253,5.1257,5.1276,5.1272,5.1268,5.1265,5.1286,5.1315,5.1225,5.124,5.1216,5.1212,5.1236,5.1237,5.1245,5.1314,5.1314,5.1232,5.1234,5.1236,5.1237,0,0,0,0,0,0,0,5.1252,5.1257,5.1314,5.1276,5.1271,5.1248,5.1247,5.1291,5.1258,5.1238,5.1232,5.1233,5.1233,5.1242,5.1244,5.1314,5.1232,5.1235,5.1237,5.1238,5.1458,5.1461,0,0,0,0,0,0,5.1257,5.1256,5.1314,5.1314,5.1251,5.1253,5.1251,5.127,5.1257,5.1252,5.1236,5.1229,5.1238,5.1241,5.1244,5.135,5.1236,5.1239,5.1241,5.1454,5.1458,5.1463,0,0,0,0,0,0,5.1255,5.1263,5.1314,5.1284,5.1288,5.1258,5.1279,5.1272,5.1281,5.1256,5.1249,5.1252,5.1235,5.1239,5.1297,5.1349,5.124,5.1243,5.1449,5.1455,5.146,5.1564,0,0,0,0,0,0,5.1253,5.1263,5.1298,5.1285,5.129,5.1368,5.1282,5.1274,5.1287,5.1277,5.1269,5.1264,5.1233,5.1293,5.13,5.1352,5.1246,5.1444,5.1452,5.1459,5.1556,5.1573,5.1587,0,0,0,0,0,5.1251,5.1328,5.1301,5.1308,5.1334,5.1372,5.1374,5.1338,5.1292,5.1326,5.131,5.1264,5.1342,5.1299,5.1307,5.136,5.1441,5.145,5.1458,5.1549,5.157,5.1587,0,0,0,0,0,0,5.1349,5.1326,5.1295,5.137,5.1374,5.1356,5.1399,5.1361,5.1377,5.1367,5.1321,5.132,5.1384,5.1378,5.1331,5.1448,5.1383,5.1394,5.145,5.1469,5.1484,5.1484,5.1249,0,0,0,0,0,5.1379,5.1412,5.139,5.1458,5.1461,5.143,5.1445,5.1416,5.1418,5.1418,5.1406,5.1409,5.1434,5.1451,5.1473,5.1555,5.1551,5.1596,5.1611,5.1624,5.1633,5.1674,5.1693,5.1491,5.1491,5.149,0,0,5.1442,5.1433,5.1457,5.1478,5.1477,5.151,5.1432,5.1472,5.1496,5.1424,5.1477,5.1469,5.1469,5.1539,5.1569,5.1536,5.1688,5.1635,5.1645,5.1647,5.1685,5.1704,5.1721,5.1496,5.1495,5.1494,0,0,5.1574,5.1572,5.1627,5.1627,5.1627,5.1605,5.1619,5.1607,5.1598,5.1651,5.1597,5.1626,5.167,5.1672,5.1678,5.1809,5.1767,5.1818,5.1899,5.1939,5.1955,5.1969,5.2014,5.203,5.1827,5.1828,5.1828,0,5.1652,5.1701,5.1661,5.1703,5.1713,5.165,5.1705,5.1707,5.1714,5.1722,5.1685,5.1738,5.1734,5.1802,5.1834,5.1842,5.1855,5.1818,5.1956,5.1969,5.1982,5.2024,5.2041,5.1834,5.1833,5.1832,5.1832,0,5.1796,5.1831,5.1876,5.1883,5.1898,5.1947,5.1913,5.1933,5.1903,5.1886,5.1939,5.1932,5.195,5.1964,5.1936,5.2028,5.2007,5.1964,5.1897,5.2008,5.2046,5.2062,5.1842,5.184,5.1838,5.1837,0,0,5.199,5.1973,5.199,5.1991,5.1985,5.2011,5.2057,5.2074,5.2091,5.2098,5.2134,5.2173,5.2132,5.214,5.211,5.2146,5.2248,5.2098,5.2097,5.2125,5.2347,5.2379,5.2398,5.222,5.2223,5.2226,5.2347,0,5.2115,5.2191,5.2156,5.2236,5.2266,5.2206,5.2245,5.2246,5.223,5.2253,5.2236,5.2264,5.2209,5.2213,5.2246,5.2229,5.2292,5.222,5.2252,5.2254,5.2252,5.2419,5.2452,5.2567,5.2362,5.2364,5.2366,0,5.2272,5.2284,5.2367,5.2354,5.2365,5.2401,5.2413,5.2437,5.2435,5.2421,5.243,5.2392,5.2435,5.237,5.2427,5.2379,5.239,5.2384,5.2387,5.2388,5.2316,5.2422,5.2602,5.2619,5.239,5.2388,5.2386,0,5.2402,5.244,5.2493,5.2497,5.2483,5.2509,5.2505,5.25,5.2512,5.2523,5.253,5.2546,5.2555,5.2568,5.2535,5.2491,5.2596,5.2529,5.2585,5.2586,5.2608,5.2607,5.2792,5.2619,5.2619,5.2619,5.2618,0,5.2545,5.2598,5.2551,5.2584,5.2641,5.2599,5.2656,5.2645,5.2641,5.267,5.262,5.2648,5.2604,5.2628,5.2603,5.2653,5.2658,5.2647,5.2639,5.2651,5.2652,5.2656,5.2647,5.2623,5.2622,5.2621,5.262,0,5.27,5.2671,5.2725,5.2707,5.2704,5.2746,5.273,5.276,5.2741,5.2778,5.2784,5.2755,5.278,5.2749,5.2772,5.2755,5.2823,5.2804,5.2823,5.2817,5.2874,5.2868,5.3066,5.3089,5.2904,5.2906,5.2907,0,5.2792,5.2831,5.2817,5.2832,5.283,5.2857,5.2868,5.2829,5.2843,5.2844,5.2873,5.2894,5.2908,5.2952,5.2932,5.2949,5.2929,5.2997,5.2931,5.2941,5.2928,5.2925,5.2928,5.301,5.3013,5.3015,5.3016,0,5.2958,5.2942,5.296,5.2974,5.2989,5.2998,5.3003,5.3019,5.2977,5.2996,5.3021,5.3032,5.3055,5.3076,5.3088,5.3082,5.3042,5.3037,5.305,5.3061,5.307,5.3064,5.2858,5.3032,5.3031,5.303,5.3029,5.3028,5.3083,5.3114,5.3108,5.313,5.313,5.3135,5.3161,5.3145,5.3165,5.318,5.3155,5.3186,5.3183,5.3194,5.3193,5.3217,5.3187,5.3207,5.3212,5.3217,5.3225,5.3068,5.3219,5.3218,5.3218,5.3217,5.3217,0,5.3245,5.3238,5.3259,5.3267,5.3284,5.3245,5.3248,5.3265,5.3292,5.3292,5.3307,5.3335,5.3355,5.3337,5.3353,5.3375,5.3357,5.3381,5.3378,5.3377,5.3251,5.3237,5.3395,5.3395,5.3395,5.3395,5.3395,5.3395,5.3331,5.338,5.3363,5.3411,5.3403,5.3433,5.3438,5.3442,5.3442,5.3475,5.3491,5.3479,5.3471,5.3486,5.3502,5.3496,5.3504,5.3534,5.3522,5.3404,5.3386,5.3369,5.3356,5.3536,5.3537,5.3645,5.3646,5.3647]}]]